Jackson, TN

3:22 PM CST on November 15, 2019 (GMT -0600)
McKellar-Sipes Regional

Weather History for KMKL - September, 2019

Change the Weather History Date:

Monday, September 2, 2019

  Actual Average Record
Temperature  
Mean Temperature 78 °F 76 °F  
Max Temperature 91 °F 88 °F 98 °F (1975)
Min Temperature 65 °F 64 °F 49 °F (1987)
Degree Days  
Heating Degree Days 0 0  
Month to date heating degree days 0 0  
Since 1 July heating degree days 0 0  
Cooling Degree Days 14 11  
Month to date cooling degree days 25 22  
Year to date cooling degree days 1486 1445  
Growing Degree Days 28 (Base 50)    
Moisture  
Dew Point 69 °F    
Average Humidity 83    
Maximum Humidity 100    
Minimum Humidity 49    
Precipitation  
Precipitation 0.00 in 0.08 in 2.24 in (2012)
Month to date precipitation 0.00 0.17  
Year to date precipitation 46.71 36.04  
Sea Level Pressure  
Sea Level Pressure 30.06 in    
Wind  
Wind Speed 1 mph ()    
Max Wind Speed 10 mph    
Max Gust Speed 13 mph    
Visibility 6.8 miles    
Events      
T = Trace of Precipitation, MM = Missing Value Source: Averaged Metar Reports

Daily Weather History Graph

Daily Weather History Graph

Search for Another Location

Airport or City:

Astronomy

Sep. 02, 2019 Rise Set
Actual Time 6:28 AM CDT 7:21 PM CDT
Civil Twilight 6:02 AM CDT 7:47 PM CDT
Nautical Twilight 5:31 AM CDT 8:18 PM CDT
Astronomical Twilight 4:59 AM CDT 8:50 PM CDT
Moon 10:03 AM CDT (9/2) 9:51 PM CDT (9/2)
Length of Visible Light 13h 45m
Length of Day
12h 53m
Waxing Crescent, 15% of the Moon is Illuminated
Sep 2
Waxing Crescent
Sep 5
First Quarter
Sep 13
Full
Sep 21
Last Quarter
Sep 28
New

Hourly Weather History & Observations

Time (CDT) Temp. Heat Index Dew Point Humidity Pressure Visibility Wind Dir Wind Speed Gust Speed Precip Events Conditions
12:12 AM 69.1 °F - 68.0 °F 96% 30.08 in 1.0 mi Calm Calm - N/A   Clear
12:53 AM 68.0 °F - 66.9 °F 96% 30.07 in 6.0 mi Calm Calm - N/A   Clear
1:53 AM 68.0 °F - 66.0 °F 93% 30.06 in 7.0 mi Calm Calm - N/A   Clear
2:08 AM 66.9 °F - 66.0 °F 97% 30.08 in 1.8 mi Calm Calm - N/A   Clear
2:15 AM 66.9 °F - 66.0 °F 97% 30.08 in 3.0 mi Calm Calm - N/A   Clear
2:35 AM 66.9 °F - 66.9 °F 100% 30.07 in 1.8 mi Calm Calm - N/A   Clear
2:43 AM 68.0 °F - 66.9 °F 96% 30.07 in 3.0 mi Calm Calm - N/A   Clear
2:53 AM 66.9 °F - 66.9 °F 100% 30.06 in 4.0 mi Calm Calm - N/A   Clear
3:11 AM 66.0 °F - 66.0 °F 100% 30.07 in 1.8 mi Calm Calm - N/A   Clear
3:19 AM 66.9 °F - 66.0 °F 97% 30.07 in 3.0 mi Calm Calm - N/A   Clear
3:53 AM 66.9 °F - 66.9 °F 100% 30.06 in 4.0 mi Calm Calm - N/A   Clear
4:53 AM 66.9 °F - 64.9 °F 93% 30.07 in 10.0 mi Calm Calm - N/A   Clear
5:53 AM 66.0 °F - 66.0 °F 100% 30.08 in 5.0 mi Calm Calm - N/A   Clear
6:53 AM 66.9 °F - 66.0 °F 97% 30.09 in 10.0 mi Calm Calm - N/A   Clear
7:53 AM 73.9 °F - 70.0 °F 87% 30.10 in 10.0 mi Calm Calm - N/A   Clear
8:53 AM 80.1 °F 83.8 °F 72.0 °F 76% 30.11 in 10.0 mi Calm Calm - N/A   Clear
9:53 AM 84.0 °F 89.6 °F 72.0 °F 67% 30.11 in 10.0 mi East 3.5 mph - N/A   Scattered Clouds
10:53 AM 86.0 °F 93.0 °F 73.0 °F 65% 30.12 in 10.0 mi Variable 3.5 mph - N/A   Partly Cloudy
11:53 AM 86.0 °F 92.2 °F 72.0 °F 63% 30.10 in 10.0 mi NNW 6.9 mph - N/A   Overcast
12:53 PM 90.0 °F 96.9 °F 72.0 °F 55% 30.08 in 10.0 mi NNW 6.9 mph - N/A   Scattered Clouds
1:53 PM 91.0 °F 99.3 °F 73.0 °F 55% 30.06 in 10.0 mi NNW 9.2 mph - N/A   Mostly Cloudy
2:53 PM 91.0 °F 97.6 °F 71.1 °F 52% 30.04 in 10.0 mi NNE 6.9 mph - N/A   Scattered Clouds
3:53 PM 91.0 °F 96.6 °F 70.0 °F 50% 30.03 in 10.0 mi Calm Calm - N/A   Scattered Clouds
4:53 PM 91.0 °F 96.6 °F 70.0 °F 50% 30.02 in 10.0 mi NNW 6.9 mph - N/A   Clear
5:53 PM 90.0 °F 94.5 °F 69.1 °F 50% 30.02 in 10.0 mi North 8.1 mph - N/A   Partly Cloudy
6:53 PM 84.0 °F 89.6 °F 72.0 °F 67% 30.02 in 10.0 mi NE 3.5 mph - N/A   Clear
7:53 PM 75.9 °F - 71.1 °F 85% 30.02 in 10.0 mi Calm Calm - N/A   Clear
8:53 PM 73.9 °F - 71.1 °F 91% 30.02 in 10.0 mi Calm Calm - N/A   Clear
9:53 PM 72.0 °F - 71.1 °F 97% 30.04 in 10.0 mi Calm Calm - N/A   Clear
10:53 PM 70.0 °F - 69.1 °F 97% 30.04 in 5.0 mi Calm Calm - N/A   Clear
11:19 PM 70.0 °F - 69.1 °F 97% 30.05 in 1.8 mi Calm Calm - N/A   Clear
11:53 PM 69.1 °F - 68.0 °F 96% 30.04 in 0.8 mi Calm Calm - N/A   Clear